カタログに戻る

MACSAT 2

M 2

運用中通信PO
NORAD 20608·PAYLOAD·🇺🇸 United States

打ち上げ May 9, 1990 から Vandenberg Space Force Base

Loading…

次のパス (今後24時間)

TLE

最新Source: Space-Track

元期: Sep 14, 2026, 09:14 UTC

1 20608U 90043B   26257.38531649  .00000538  00000-0  63797-4 0  9995
2 20608  89.7518 242.4410 0079793 208.3914 151.2953 14.80820876951594

AllMySatでMACSAT 2をリアルタイム追跡

Download on the App Store